Regional Weather Roundup
Issued by NWS

Home | Current Version | Previous Version | Text Only | Print | Product List | Glossary On
Versions: 1 2 3 4 5 6 7 8 9 10 11 12 13 14 15 16 17 18 19 20 21 22 23 24 25 26 27 28 29 30 31 32 33 34 35 36 37 38 39 40 41 42 43 44 45 46 47 48 49 50
000
ASUS44 KFWD 040215
RWRTX
NORTH TEXAS HOURLY WEATHER ROUNDUP
NATIONAL WEATHER SERVICE FORT WORTH TX
900 PM CDT SUN MAY 03 2015

NOTE: "FAIR" INDICATES FEW OR NO CLOUDS BELOW 12,000 FEET WITH NO
SIGNIFICANT WEATHER AND/OR OBSTRUCTIONS TO VISIBILITY.

TXZ118-119-040300-
DALLAS/FORT WORTH METROPLEX

CITY           SKY/WX    TMP DP  RH WIND       PRES   REMARKS
DFW AIRPORT    PTCLDY    71  57  61 SE9       29.95R
DALLAS LOVE    PTCLDY    75  57  53 SE14      29.96R
FTW MEACHAM    CLEAR     74  58  57 SE10      29.94R
DAL-EXECUTIVE  CLEAR     72  58  61 SE8       29.96R
FTW-ALLIANCE   PTCLDY    73  57  57 SE12      29.94R
FTW-NAS-JRB    CLEAR     76  58  53 SE10      29.95R
FTW-SPINKS     CLEAR     71  58  62 SE7       29.97R
ARLINGTON      CLEAR     72  57  59 SE8       29.96R
GRAND PRAIRIE  CLEAR     73  59  62 SE6       29.97S
MESQUITE       CLEAR     71  57  62 SE6       29.97S
LANCASTER      CLEAR     67  58  72 SE3       29.97S
$$

TXZ091>094-102>105-117-120-121-131>134-040300-
NORTH CENTRAL TEXAS

CITY           SKY/WX    TMP DP  RH WIND       PRES   REMARKS
SHRMAN/DENISON CLEAR     72  60  66 SE8       29.97S
GAINESVILLE    CLEAR     69  58  68 NE9       29.97R
BOWIE          CLEAR     70  59  68 SE5       29.93S
BRIDGEPORT     CLEAR     71  60  68 SE7       29.95R
DECATUR        CLEAR     71  57  62 SE8       29.95R
DENTON         CLEAR     72  58  61 SE9       29.94S
MCKINNEY       CLEAR     70  58  65 SE6       29.97R
GREENVILLE     CLEAR     68  57  68 CALM      29.99R
ROCKWALL       CLEAR     70  58  66 SE7       29.96S
TERRELL        CLEAR     76  59  55 E7        29.98S
WAXAHACHIE     CLEAR     70  60  69 SE3       29.98R
CLEBURNE       CLEAR     72  61  68 SE10      29.97R
GRANBURY       MOCLDY    75  58  54 SE8       29.95R
$$

TXZ083>090-098>101-113>116-127>130-139>142-154-155-040300-
WESTERN NORTH TEXAS

CITY           SKY/WX    TMP DP  RH WIND       PRES   REMARKS
WICHITA FALLS  PTCLDY    70  60  70 SE12      29.89R
WF-KICKAPOO    CLEAR     73  61  64 SE9       29.91R
VERNON         MOCLDY    75  52  44 SE12      29.88R
ABILENE        CLEAR     73  54  51 SE14      29.90R
ABILENE-DYESS  CLEAR     76  56  49 SE14      29.88S
BRECKENRIDGE   CLEAR     76  53  44 SE9       29.91R
GRAHAM         CLEAR     74  59  59 SE6       29.90R
MINERAL WELLS  CLEAR     71  59  65 SE9       29.92R
STEPHENVILLE   CLEAR     71  56  57 SE7       29.97R
COMANCHE       CLEAR     69  56  63 SE6       29.95R
BROWNWOOD      PTCLDY    70  55  60 SE8       29.93S
COLEMAN        CLEAR     74  55  51 SE10      29.92S
BRADY          CLEAR     73  52  46 SE9       29.94R
$$

TXZ143>147-156>162-174-175-040300-
CENTRAL TEXAS

CITY           SKY/WX    TMP DP  RH WIND       PRES   REMARKS
WACO           CLEAR     70  55  59 SE8       29.96R
WACO-TSTC      CLEAR     70  59  68 CALM      29.97R
WACO-MCGREGOR  CLEAR     72  52  49 SE7       29.98R
HILLSBORO      CLEAR     69  57  65 E8        29.96S
CORSICANA      CLEAR     72  59  63 SE5       29.99R
MEXIA          CLEAR     71  60  69 SE5       29.97R
HEARNE         CLEAR     73  60  62 SE6       29.99R
CAMERON        CLOUDY    75  60  59 S7        29.97R
TEMPLE         PTCLDY    72  54  53 SE9       29.96R
KILLEEN        CLEAR     68  56  65 SE9       29.96R
KILLEEN-SKYLRK CLEAR     73  54  49 SE7       29.97R
GATESVILLE     CLEAR     70  54  56 CALM      29.98R
HAMILTON       CLEAR     71  55  58 SE13      29.97R
LAMPASAS       PTCLDY    72  56  55 SE6       29.96S
$$

TXZ095>097-106>112-122>126-135>138-148>153-164>167-040300-
EAST TEXAS

CITY           SKY/WX    TMP DP  RH WIND       PRES   REMARKS
PARIS          CLEAR     68  54  60 MISG      30.00S
SULPHUR SPRNGS CLEAR     72  57  59 S6        30.01S
MOUNT PLEASANT CLEAR     70  55  59 SE3       30.02S
GILMER           N/A    N/A N/A N/A MISG        N/A
MINEOLA        CLEAR     66  57  72 CALM      30.01R
TYLER          CLEAR     70  57  63 SE5       30.00R
LONGVIEW       CLEAR     69  58  67 SE5       30.01R
MARSHALL       CLEAR     68  61  76 CALM      30.04R
ATHENS         CLEAR     68  59  73 CALM      29.99R
PALESTINE      PTCLDY    69  61  75 E3        30.00S
JACKSONVILLE   PTCLDY    72  56  58 SE5       30.03R
HENDERSON      CLEAR     70  56  61 CALM      30.03R
NACOGDOCHES    CLEAR     66  57  72 SE5       30.02R
LUFKIN         CLEAR     73  59  61 SE6       30.02R
$$

SUPPLEMENTAL OBSERVATIONS (CENTRAL)

CITY           SKY/WX    TMP DP  RH WIND       PRES   REMARKS
CADDO GRASSLND   N/A     70  57  64 S5          N/A
PAT MAYSE LAKE   N/A     72  57  60 SE6         N/A
GREENVILLE       N/A     70  57  64 SE3         N/A
CEDAR HILL       N/A     70  57  64 SE3         N/A
LAKE LIMESTONE   N/A    N/A N/A N/A SE6         N/A
MCGREGOR         N/A     72  55  56 SE6         N/A
TEMPLE           N/A     73  57  56 SE7         N/A
$$

SUPPLEMENTAL OBSERVATIONS (WEST)

CITY           SKY/WX    TMP DP  RH WIND       PRES   REMARKS
MILLERS CREEK    N/A     72  59  64 SE8         N/A
POSSUM KINGDOM   N/A     73  55  53 SE8         N/A
LBJ GRASSLAND    N/A     72  57  60 SE8         N/A
GRANBURY         N/A     75  57  53 SE9         N/A
COMANCHE         N/A     66  52  59 SE8         N/A
HAMBY            N/A     73  52  46 SE8         N/A
IVIE RESERVOIR   N/A     75  50  41 SE12        N/A
COLORADO BEND    N/A     72  54  53 S3          N/A
$$

SUPPLEMENTAL OBSERVATIONS (EAST)

CITY           SKY/WX    TMP DP  RH WIND       PRES   REMARKS
TEXARKANA        N/A     64  61  88 CALM        N/A
LINDEN           N/A     68  55  64 CALM        N/A
CADDO LAKE       N/A     63  59  88 CALM        N/A
LUFKIN           N/A     70  57  64 MISG        N/A
N SABINE NF      N/A     66  59  77 MISG        N/A
$$

SUPPLEMENTAL OBSERVATIONS ARE A COLLECTION OF AUTOMATED INSTRUMENTS
THAT ARE MAINTAINED BY A VARIETY OF FEDERAL AND STATE AGENCIES.
CERTAIN ELEMENTS...SUCH AS HUMIDITY VALUES AND SUSTAINED WIND
SPEEDS...MAY BE APPROXIMATED.



USA.gov is the U.S. government's official web portal to all federal, state and local government web resources and services.